Location: Plainartige
(45.6866°N, 1.7993°E)
Time: 21:00:53
(UTC+00:00)

Helios 1A Rocket - Pass Details

Date: 03 March 2021
Orbit: 563 x 585 km, 98.3° (Epoch: 13 April)

Event Time Altitude Azimuth Distance (km) Brightness Sun altitude
Rises 19:13:21 0° 177° (S) 2,767 6.3 -16.6°
Reaches altitude 10° 19:15:32 10° 182° (S) 1,871 5.5 -17.0°
Maximum altitude 19:19:29 52° 259° (W) 713 3.7 -17.7°
Drops below altitude 10° 19:23:27 10° 337° (NNW) 1,875 6.0 -18.4°
Sets 19:25:38 0° 342° (NNW) 2,774 6.8 -18.7°
